Time,TemperatureF,DewpointF,PressureIn,WindDirection,WindDirectionDegrees,WindSpeedMPH,WindSpeedGustMPH,Humidity,HourlyPrecipIn,Conditions,Clouds,dailyrainin,SoftwareType,DateUTC
2013-08-22 00:04:00,53.8,53.8,29.48,SSE,155,5.0,6.0,100,0.00,,,0.00,Wunderground v.1.15,2013-08-22 08:04:00,
2013-08-22 00:14:00,53.8,53.8,29.48,SSE,153,5.0,6.0,100,0.00,,,0.00,Wunderground v.1.15,2013-08-22 08:14:00,
2013-08-22 00:24:00,53.8,53.8,29.48,SSE,150,6.0,6.0,100,0.00,,,0.00,Wunderground v.1.15,2013-08-22 08:24:00,
2013-08-22 00:34:00,53.8,53.8,29.48,SSE,153,5.0,8.0,100,0.00,,,0.00,Wunderground v.1.15,2013-08-22 08:34:00,
2013-08-22 00:44:00,53.8,53.8,29.48,SSE,156,4.0,5.0,100,0.00,,,0.00,Wunderground v.1.15,2013-08-22 08:44:00,
2013-08-22 00:54:00,53.8,53.8,29.48,SSE,156,4.0,5.0,100,0.00,,,0.00,Wunderground v.1.15,2013-08-22 08:54:00,
2013-08-22 01:04:00,53.6,53.6,29.47,SSE,156,3.0,4.0,100,0.00,,,0.00,Wunderground v.1.15,2013-08-22 09:04:00,
2013-08-22 01:14:00,53.6,53.6,29.47,SSE,156,4.0,5.0,100,0.00,,,0.00,Wunderground v.1.15,2013-08-22 09:14:00,
2013-08-22 01:24:00,53.6,53.6,29.47,SSE,156,4.0,5.0,100,0.00,,,0.00,Wunderground v.1.15,2013-08-22 09:24:00,
2013-08-22 01:29:00,53.6,53.6,29.47,SSE,155,7.0,7.0,100,0.00,,,0.00,Wunderground v.1.15,2013-08-22 09:29:00,
2013-08-22 01:34:00,53.6,53.6,29.47,SSE,155,6.0,7.0,100,0.00,,,0.00,Wunderground v.1.15,2013-08-22 09:34:00,
2013-08-22 01:44:00,53.6,53.6,29.46,SSE,157,6.0,7.0,100,0.00,,,0.00,Wunderground v.1.15,2013-08-22 09:44:00,
2013-08-22 01:50:00,53.5,53.5,29.46,SSE,159,6.0,10.0,100,0.00,,,0.00,Wunderground v.1.15,2013-08-22 09:50:00,
2013-08-22 01:59:00,53.6,53.6,29.47,SSE,156,7.0,7.0,100,0.00,,,0.00,Wunderground v.1.15,2013-08-22 09:59:00,
2013-08-22 02:09:00,53.6,53.6,29.47,SSE,157,5.0,5.0,100,0.00,,,0.00,Wunderground v.1.15,2013-08-22 10:09:00,
2013-08-22 02:19:00,53.6,53.6,29.48,SSE,157,4.0,4.0,100,0.00,,,0.00,Wunderground v.1.15,2013-08-22 10:19:00,
2013-08-22 02:29:00,53.6,53.6,29.48,SSE,157,3.0,4.0,100,0.00,,,0.00,Wunderground v.1.15,2013-08-22 10:29:00,
2013-08-22 02:34:00,53.6,53.6,29.48,SSE,157,2.0,4.0,100,0.00,,,0.00,Wunderground v.1.15,2013-08-22 10:34:00,
2013-08-22 02:44:00,53.3,53.3,29.48,SSE,157,1.0,2.0,100,0.00,,,0.00,Wunderground v.1.15,2013-08-22 10:44:00,
2013-08-22 04:29:00,52.8,52.8,29.47,SSE,157,0.0,0.0,100,0.00,,,0.01,Wunderground v.1.15,2013-08-22 12:29:00,
2013-08-22 04:35:00,52.8,52.8,29.47,SSE,157,0.0,0.0,100,0.00,,,0.01,Wunderground v.1.15,2013-08-22 12:35:00,
2013-08-22 04:44:00,52.6,52.6,29.46,SSE,157,1.0,1.0,100,0.00,,,0.01,Wunderground v.1.15,2013-08-22 12:44:00,
2013-08-22 04:54:00,52.6,52.6,29.46,SSE,157,0.0,1.0,100,0.00,,,0.01,Wunderground v.1.15,2013-08-22 12:54:00,
2013-08-22 05:04:00,52.5,52.5,29.46,SSE,157,0.0,0.0,100,0.00,,,0.01,Wunderground v.1.15,2013-08-22 13:04:00,
2013-08-22 05:10:00,52.6,52.6,29.46,SSE,157,0.0,0.0,100,0.00,,,0.01,Wunderground v.1.15,2013-08-22 13:10:00,
2013-08-22 05:14:00,52.5,52.5,29.46,SSE,157,0.0,0.0,100,0.00,,,0.01,Wunderground v.1.15,2013-08-22 13:14:00,
2013-08-22 05:20:00,52.5,52.5,29.46,SSE,157,0.0,0.0,100,0.00,,,0.02,Wunderground v.1.15,2013-08-22 13:20:00,
2013-08-22 05:30:00,52.5,52.5,29.46,SSE,157,0.0,0.0,100,0.00,,,0.02,Wunderground v.1.15,2013-08-22 13:30:00,
2013-08-22 05:39:00,52.5,52.5,29.46,SSE,157,0.0,0.0,100,0.00,,,0.02,Wunderground v.1.15,2013-08-22 13:39:00,
2013-08-22 05:49:00,52.5,52.5,29.46,SSE,157,0.0,0.0,100,0.00,,,0.02,Wunderground v.1.15,2013-08-22 13:49:00,
2013-08-22 05:59:00,52.2,52.2,29.45,SSE,157,0.0,0.0,100,0.00,,,0.02,Wunderground v.1.15,2013-08-22 13:59:00,
2013-08-22 06:09:00,52.0,52.0,29.45,SSE,157,0.0,0.0,100,0.00,,,0.02,Wunderground v.1.15,2013-08-22 14:09:00,
2013-08-22 06:15:00,51.9,51.9,29.45,SSE,157,0.0,0.0,100,0.00,,,0.02,Wunderground v.1.15,2013-08-22 14:15:00,
2013-08-22 06:24:00,51.9,51.9,29.45,SSE,157,0.0,0.0,100,0.00,,,0.02,Wunderground v.1.15,2013-08-22 14:24:00,
2013-08-22 06:29:00,52.0,52.0,29.45,SSE,157,0.0,0.0,100,0.00,,,0.02,Wunderground v.1.15,2013-08-22 14:29:00,
2013-08-22 06:39:00,52.0,52.0,29.45,SSE,157,0.0,0.0,100,0.00,,,0.02,Wunderground v.1.15,2013-08-22 14:39:00,
2013-08-22 06:44:00,52.0,52.0,29.45,SSE,157,0.0,0.0,100,0.00,,,0.02,Wunderground v.1.15,2013-08-22 14:44:00,
2013-08-22 06:54:00,52.0,52.0,29.45,SSE,157,0.0,0.0,100,0.00,,,0.02,Wunderground v.1.15,2013-08-22 14:54:00,
2013-08-22 07:04:00,52.0,52.0,29.45,SSE,157,0.0,0.0,100,0.00,,,0.02,Wunderground v.1.15,2013-08-22 15:04:00,
2013-08-22 07:10:00,52.0,52.0,29.45,SSE,157,0.0,0.0,100,0.00,,,0.02,Wunderground v.1.15,2013-08-22 15:10:00,
2013-08-22 07:19:00,52.0,52.0,29.45,SSE,157,0.0,0.0,100,0.00,,,0.02,Wunderground v.1.15,2013-08-22 15:19:00,
2013-08-22 07:29:00,51.9,51.9,29.45,SSE,157,0.0,0.0,100,0.00,,,0.02,Wunderground v.1.15,2013-08-22 15:29:00,
2013-08-22 07:39:00,51.9,51.9,29.45,SSE,157,0.0,0.0,100,0.00,,,0.03,Wunderground v.1.15,2013-08-22 15:39:00,
2013-08-22 07:49:00,51.7,51.7,29.45,SSE,157,0.0,0.0,100,0.00,,,0.03,Wunderground v.1.15,2013-08-22 15:49:00,
2013-08-22 07:59:00,51.6,51.6,29.45,SSE,157,0.0,0.0,100,0.00,,,0.03,Wunderground v.1.15,2013-08-22 15:59:00,
2013-08-22 08:09:00,51.4,51.4,29.45,SSE,157,0.0,0.0,100,0.00,,,0.04,Wunderground v.1.15,2013-08-22 16:09:00,
2013-08-22 08:19:00,51.4,51.4,29.45,SSE,157,0.0,0.0,100,0.00,,,0.04,Wunderground v.1.15,2013-08-22 16:19:00,
2013-08-22 08:29:00,51.6,51.6,29.45,SSE,157,0.0,0.0,100,0.00,,,0.04,Wunderground v.1.15,2013-08-22 16:29:00,
2013-08-22 08:34:00,51.6,51.6,29.45,SSE,157,0.0,0.0,100,0.00,,,0.04,Wunderground v.1.15,2013-08-22 16:34:00,
2013-08-22 08:45:00,51.7,51.7,29.44,SSE,157,0.0,0.0,100,0.00,,,0.04,Wunderground v.1.15,2013-08-22 16:45:00,
2013-08-22 08:54:00,51.7,51.7,29.44,SSE,157,0.0,0.0,100,0.00,,,0.04,Wunderground v.1.15,2013-08-22 16:54:00,
2013-08-22 09:04:00,51.7,51.7,29.44,SSE,157,0.0,0.0,100,0.00,,,0.05,Wunderground v.1.15,2013-08-22 17:04:00,
2013-08-22 09:14:00,51.7,51.7,29.44,SSE,157,0.0,0.0,100,0.00,,,0.05,Wunderground v.1.15,2013-08-22 17:14:00,
2013-08-22 09:20:00,51.9,51.9,29.44,SSE,157,0.0,0.0,100,0.00,,,0.05,Wunderground v.1.15,2013-08-22 17:20:00,
2013-08-22 09:30:00,52.0,52.0,29.44,SSE,157,0.0,0.0,100,0.00,,,0.05,Wunderground v.1.15,2013-08-22 17:30:00,
2013-08-22 09:40:00,52.2,52.2,29.44,SSE,157,0.0,0.0,100,0.00,,,0.05,Wunderground v.1.15,2013-08-22 17:40:00,
2013-08-22 09:49:00,52.2,52.2,29.44,SSE,157,0.0,0.0,100,0.00,,,0.05,Wunderground v.1.15,2013-08-22 17:49:00,
2013-08-22 09:59:00,52.3,52.3,29.44,SSE,157,0.0,1.0,100,0.00,,,0.05,Wunderground v.1.15,2013-08-22 17:59:00,
2013-08-22 10:09:00,52.6,52.6,29.44,SSE,157,1.0,1.0,100,0.00,,,0.05,Wunderground v.1.15,2013-08-22 18:09:00,
2013-08-22 10:19:00,52.8,52.8,29.44,SSE,157,0.0,1.0,100,0.00,,,0.05,Wunderground v.1.15,2013-08-22 18:19:00,
2013-08-22 10:29:00,52.8,52.8,29.44,SSE,157,0.0,0.0,100,0.00,,,0.06,Wunderground v.1.15,2013-08-22 18:29:00,
2013-08-22 10:39:00,52.9,52.9,29.44,SSE,157,0.0,0.0,100,0.00,,,0.06,Wunderground v.1.15,2013-08-22 18:39:00,
2013-08-22 10:49:00,53.1,53.1,29.44,SSE,157,0.0,0.0,100,0.00,,,0.06,Wunderground v.1.15,2013-08-22 18:49:00,
2013-08-22 10:59:00,53.2,53.2,29.44,SSE,157,0.0,0.0,100,0.00,,,0.07,Wunderground v.1.15,2013-08-22 18:59:00,
2013-08-22 11:09:00,53.3,53.3,29.44,SSE,157,0.0,0.0,100,0.05,,,0.08,Wunderground v.1.15,2013-08-22 19:09:00,
2013-08-22 11:15:00,53.3,53.3,29.44,SSE,157,0.0,1.0,100,0.05,,,0.08,Wunderground v.1.15,2013-08-22 19:15:00,
2013-08-22 11:24:00,53.3,53.3,29.44,SSE,157,1.0,1.0,100,0.04,,,0.08,Wunderground v.1.15,2013-08-22 19:24:00,
2013-08-22 11:29:00,53.3,53.3,29.44,WNW,293,1.0,2.0,100,0.04,,,0.08,Wunderground v.1.15,2013-08-22 19:29:00,
2013-08-22 11:35:00,53.5,53.5,29.44,NW,324,3.0,5.0,100,0.04,,,0.08,Wunderground v.1.15,2013-08-22 19:35:00,
2013-08-22 11:44:00,53.6,53.6,29.44,NNW,337,6.0,7.0,100,0.00,,,0.09,Wunderground v.1.15,2013-08-22 19:44:00,
2013-08-22 11:54:00,53.9,53.9,29.44,NNW,340,8.0,8.0,100,0.00,,,0.09,Wunderground v.1.15,2013-08-22 19:54:00,
2013-08-22 12:04:00,53.9,53.9,29.44,NNW,327,8.0,8.0,100,0.00,,,0.09,Wunderground v.1.15,2013-08-22 20:04:00,
2013-08-22 12:14:00,53.8,53.8,29.44,NW,321,9.0,11.0,100,0.00,,,0.09,Wunderground v.1.15,2013-08-22 20:14:00,
2013-08-22 12:24:00,53.9,53.9,29.44,NNW,341,9.0,13.0,100,0.00,,,0.09,Wunderground v.1.15,2013-08-22 20:24:00,
2013-08-22 12:34:00,54.1,54.1,29.44,NNW,331,10.0,10.0,100,0.00,,,0.09,Wunderground v.1.15,2013-08-22 20:34:00,
2013-08-22 12:44:00,54.4,54.4,29.44,NNW,338,8.0,8.0,100,0.00,,,0.09,Wunderground v.1.15,2013-08-22 20:44:00,
2013-08-22 12:54:00,54.7,54.7,29.44,NNW,335,8.0,9.0,100,0.00,,,0.09,Wunderground v.1.15,2013-08-22 20:54:00,
2013-08-22 12:59:00,54.8,54.5,29.44,NNW,332,7.0,7.0,99,0.00,,,0.09,Wunderground v.1.15,2013-08-22 20:59:00,
2013-08-22 13:09:00,54.8,54.8,29.44,NNW,335,8.0,8.0,100,0.00,,,0.09,Wunderground v.1.15,2013-08-22 21:09:00,
2013-08-22 13:14:00,54.8,54.8,29.43,NNW,335,7.0,8.0,100,0.00,,,0.09,Wunderground v.1.15,2013-08-22 21:14:00,
2013-08-22 13:24:00,55.6,55.3,29.43,NNW,341,6.0,7.0,99,0.00,,,0.09,Wunderground v.1.15,2013-08-22 21:24:00,
2013-08-22 13:34:00,56.0,55.2,29.43,NNW,342,6.0,9.0,97,0.00,,,0.09,Wunderground v.1.15,2013-08-22 21:34:00,
2013-08-22 13:44:00,57.0,54.1,29.43,NNW,338,7.0,8.0,90,0.00,,,0.09,Wunderground v.1.15,2013-08-22 21:44:00,
2013-08-22 13:54:00,57.6,54.1,29.43,North,358,8.0,12.0,88,0.00,,,0.09,Wunderground v.1.15,2013-08-22 21:54:00,
2013-08-22 14:04:00,57.5,54.3,29.44,NNW,335,8.0,8.0,89,0.00,,,0.09,Wunderground v.1.15,2013-08-22 22:04:00,
2013-08-22 14:14:00,58.1,54.2,29.44,NNW,342,7.0,8.0,87,0.00,,,0.09,Wunderground v.1.15,2013-08-22 22:14:00,
2013-08-22 14:24:00,58.0,54.5,29.44,NW,324,8.0,8.0,88,0.00,,,0.09,Wunderground v.1.15,2013-08-22 22:24:00,
2013-08-22 14:34:00,58.0,54.8,29.44,NNW,347,8.0,13.0,89,0.00,,,0.09,Wunderground v.1.15,2013-08-22 22:34:00,
2013-08-22 14:40:00,57.8,54.9,29.44,NNW,342,9.0,10.0,90,0.00,,,0.09,Wunderground v.1.15,2013-08-22 22:40:00,
2013-08-22 14:49:00,57.8,54.0,29.44,NNW,340,11.0,11.0,87,0.00,,,0.09,Wunderground v.1.15,2013-08-22 22:49:00,
2013-08-22 14:59:00,59.0,54.5,29.43,NNE,20,11.0,13.0,85,0.00,,,0.09,Wunderground v.1.15,2013-08-22 22:59:00,
2013-08-22 15:09:00,58.9,54.1,29.43,NNE,20,10.0,14.0,84,0.00,,,0.09,Wunderground v.1.15,2013-08-22 23:09:00,
2013-08-22 15:19:00,58.6,54.4,29.44,NNE,13,9.0,11.0,86,0.00,,,0.09,Wunderground v.1.15,2013-08-22 23:19:00,
2013-08-22 15:29:00,58.9,54.4,29.44,North,355,10.0,10.0,85,0.00,,,0.09,Wunderground v.1.15,2013-08-22 23:29:00,
2013-08-22 15:35:00,59.2,53.7,29.44,North,11,12.0,12.0,82,0.00,,,0.09,Wunderground v.1.15,2013-08-22 23:35:00,
2013-08-22 15:44:00,59.2,54.4,29.44,North,8,16.0,21.0,84,0.00,,,0.09,Wunderground v.1.15,2013-08-22 23:44:00,
2013-08-22 15:49:00,59.2,53.4,29.44,North,11,17.0,19.0,81,0.00,,,0.09,Wunderground v.1.15,2013-08-22 23:49:00,
2013-08-22 15:55:00,59.2,53.7,29.44,NNW,338,18.0,19.0,82,0.00,,,0.09,Wunderground v.1.15,2013-08-22 23:55:00,
2013-08-22 16:04:00,57.8,52.7,29.44,NNW,340,20.0,28.0,83,0.00,,,0.09,Wunderground v.1.15,2013-08-23 00:04:00,
2013-08-22 16:09:00,57.6,53.1,29.44,NNW,342,21.0,27.0,85,0.00,,,0.09,Wunderground v.1.15,2013-08-23 00:09:00,
2013-08-22 16:19:00,57.5,53.0,29.43,North,358,23.0,23.0,85,0.00,,,0.09,Wunderground v.1.15,2013-08-23 00:19:00,
2013-08-22 16:29:00,57.5,52.7,29.43,NNW,342,22.0,25.0,84,0.00,,,0.09,Wunderground v.1.15,2013-08-23 00:29:00,
2013-08-22 16:39:00,56.2,51.4,29.43,North,1,26.0,26.0,84,0.00,,,0.09,Wunderground v.1.15,2013-08-23 00:39:00,
2013-08-22 16:44:00,55.9,52.1,29.44,NNW,334,22.0,26.0,87,0.00,,,0.09,Wunderground v.1.15,2013-08-23 00:44:00,
2013-08-22 16:54:00,55.7,51.9,29.44,North,354,22.0,24.0,87,0.00,,,0.09,Wunderground v.1.15,2013-08-23 00:54:00,
2013-08-22 16:59:00,55.6,51.8,29.43,NNW,344,23.0,23.0,87,0.00,,,0.09,Wunderground v.1.15,2013-08-23 00:59:00,
2013-08-22 17:10:00,55.3,52.1,29.43,North,349,26.0,26.0,89,0.00,,,0.09,Wunderground v.1.15,2013-08-23 01:10:00,
2013-08-22 17:19:00,55.6,52.1,29.43,NNW,347,24.0,25.0,88,0.00,,,0.09,Wunderground v.1.15,2013-08-23 01:19:00,
2013-08-22 17:29:00,55.7,51.9,29.45,NNW,344,25.0,26.0,87,0.00,,,0.09,Wunderground v.1.15,2013-08-23 01:29:00,
2013-08-22 17:39:00,54.8,51.6,29.45,North,355,22.0,22.0,89,0.00,,,0.09,Wunderground v.1.15,2013-08-23 01:39:00,
2013-08-22 17:49:00,54.1,51.2,29.45,North,352,23.0,23.0,90,0.00,,,0.09,Wunderground v.1.15,2013-08-23 01:49:00,
2013-08-22 17:54:00,54.1,51.2,29.45,North,354,23.0,23.0,90,0.00,,,0.09,Wunderground v.1.15,2013-08-23 01:54:00,
2013-08-22 18:05:00,53.9,51.0,29.45,NNW,335,22.0,22.0,90,0.00,,,0.09,Wunderground v.1.15,2013-08-23 02:05:00,
2013-08-22 18:14:00,53.5,50.9,29.46,NNW,334,21.0,22.0,91,0.00,,,0.09,Wunderground v.1.15,2013-08-23 02:14:00,
2013-08-22 18:19:00,53.5,50.9,29.46,North,352,21.0,21.0,91,0.00,,,0.09,Wunderground v.1.15,2013-08-23 02:19:00,
2013-08-22 18:25:00,53.1,50.5,29.46,NNW,344,21.0,22.0,91,0.00,,,0.09,Wunderground v.1.15,2013-08-23 02:25:00,
2013-08-22 18:35:00,52.9,50.3,29.47,NNW,348,21.0,24.0,91,0.00,,,0.09,Wunderground v.1.15,2013-08-23 02:35:00,
2013-08-22 18:45:00,52.9,50.0,29.47,North,1,21.0,25.0,90,0.00,,,0.09,Wunderground v.1.15,2013-08-23 02:45:00,
2013-08-22 18:50:00,52.9,50.3,29.47,North,351,21.0,28.0,91,0.00,,,0.09,Wunderground v.1.15,2013-08-23 02:50:00,
2013-08-22 19:00:00,53.1,50.2,29.45,North,356,23.0,23.0,90,0.00,,,0.09,Wunderground v.1.15,2013-08-23 03:00:00,
2013-08-22 19:10:00,53.1,49.9,29.45,NNW,341,23.0,32.0,89,0.00,,,0.09,Wunderground v.1.15,2013-08-23 03:10:00,
2013-08-22 19:20:00,52.9,50.3,29.46,North,356,22.0,25.0,91,0.00,,,0.09,Wunderground v.1.15,2013-08-23 03:20:00,
2013-08-22 19:30:00,52.6,50.0,29.47,NNW,344,24.0,25.0,91,0.00,,,0.09,Wunderground v.1.15,2013-08-23 03:30:00,
2013-08-22 19:40:00,52.9,50.0,29.47,North,355,26.0,32.0,90,0.00,,,0.09,Wunderground v.1.15,2013-08-23 03:40:00,
2013-08-22 19:50:00,52.6,49.8,29.47,North,359,26.0,26.0,90,0.00,,,0.09,Wunderground v.1.15,2013-08-23 03:50:00,
2013-08-22 20:00:00,52.3,49.8,29.48,NNW,340,24.0,24.0,91,0.00,,,0.09,Wunderground v.1.15,2013-08-23 04:00:00,
2013-08-22 20:05:00,52.3,49.8,29.48,North,354,23.0,24.0,91,0.00,,,0.09,Wunderground v.1.15,2013-08-23 04:05:00,
2013-08-22 20:10:00,52.2,49.9,29.48,NNW,335,21.0,22.0,92,0.00,,,0.09,Wunderground v.1.15,2013-08-23 04:10:00,
2013-08-22 20:15:00,52.2,49.9,29.48,NNW,344,22.0,24.0,92,0.00,,,0.09,Wunderground v.1.15,2013-08-23 04:15:00,
2013-08-22 20:20:00,52.0,49.7,29.48,NNW,345,23.0,23.0,92,0.00,,,0.09,Wunderground v.1.15,2013-08-23 04:20:00,
2013-08-22 20:25:00,51.9,49.9,29.48,NNW,335,24.0,24.0,93,0.00,,,0.09,Wunderground v.1.15,2013-08-23 04:25:00,
2013-08-22 20:30:00,51.9,49.9,29.48,NNW,344,23.0,29.0,93,0.00,,,0.09,Wunderground v.1.15,2013-08-23 04:30:00,
2013-08-22 20:40:00,51.6,49.6,29.48,North,358,26.0,26.0,93,0.00,,,0.09,Wunderground v.1.15,2013-08-23 04:40:00,
2013-08-22 20:45:00,51.6,49.6,29.48,NNW,338,26.0,26.0,93,0.00,,,0.09,Wunderground v.1.15,2013-08-23 04:45:00,
2013-08-22 20:50:00,51.6,49.9,29.48,NNW,345,24.0,25.0,94,0.00,,,0.09,Wunderground v.1.15,2013-08-23 04:50:00,
2013-08-22 20:55:00,51.4,49.4,29.48,NNW,345,23.0,25.0,93,0.00,,,0.09,Wunderground v.1.15,2013-08-23 04:55:00,
2013-08-22 21:05:00,51.4,49.7,29.49,NNW,345,18.0,21.0,94,0.00,,,0.09,Wunderground v.1.15,2013-08-23 05:05:00,
2013-08-22 21:15:00,51.4,49.7,29.48,NNW,332,20.0,20.0,94,0.00,,,0.09,Wunderground v.1.15,2013-08-23 05:15:00,
2013-08-22 21:25:00,51.6,49.9,29.48,NNW,334,21.0,22.0,94,0.00,,,0.09,Wunderground v.1.15,2013-08-23 05:25:00,
2013-08-22 21:35:00,51.6,49.9,29.49,NNW,331,17.0,20.0,94,0.00,,,0.09,Wunderground v.1.15,2013-08-23 05:35:00,
2013-08-22 21:45:00,51.7,49.7,29.49,NNW,332,17.0,19.0,93,0.00,,,0.09,Wunderground v.1.15,2013-08-23 05:45:00,
2013-08-22 21:50:00,51.7,50.0,29.49,North,351,16.0,16.0,94,0.00,,,0.09,Wunderground v.1.15,2013-08-23 05:50:00,
2013-08-22 22:00:00,51.6,49.9,29.50,North,349,14.0,14.0,94,0.00,,,0.09,Wunderground v.1.15,2013-08-23 06:00:00,
2013-08-22 22:10:00,51.6,49.6,29.50,North,351,12.0,14.0,93,0.00,,,0.09,Wunderground v.1.15,2013-08-23 06:10:00,
2013-08-22 22:20:00,51.7,49.5,29.50,North,5,12.0,12.0,92,0.00,,,0.09,Wunderground v.1.15,2013-08-23 06:20:00,
2013-08-22 22:30:00,51.7,49.5,29.51,North,359,13.0,13.0,92,0.00,,,0.09,Wunderground v.1.15,2013-08-23 06:30:00,
2013-08-22 22:40:00,51.4,49.4,29.51,NNE,20,9.0,9.0,93,0.00,,,0.09,Wunderground v.1.15,2013-08-23 06:40:00,
2013-08-22 22:50:00,51.7,49.5,29.51,North,356,10.0,10.0,92,0.00,,,0.09,Wunderground v.1.15,2013-08-23 06:50:00,
2013-08-22 22:55:00,51.7,49.5,29.51,NNW,347,12.0,12.0,92,0.00,,,0.09,Wunderground v.1.15,2013-08-23 06:55:00,
2013-08-22 23:05:00,51.6,49.6,29.51,NNW,348,12.0,17.0,93,0.00,,,0.09,Wunderground v.1.15,2013-08-23 07:05:00,
2013-08-22 23:15:00,51.0,49.0,29.52,NE,56,5.0,10.0,93,0.00,,,0.09,Wunderground v.1.15,2013-08-23 07:15:00,
2013-08-22 23:25:00,50.4,48.5,29.52,East,97,1.0,5.0,93,0.00,,,0.09,Wunderground v.1.15,2013-08-23 07:25:00,
2013-08-22 23:30:00,50.8,49.1,29.52,ENE,73,2.0,2.0,94,0.00,,,0.09,Wunderground v.1.15,2013-08-23 07:30:00,
2013-08-22 23:40:00,51.1,49.1,29.52,NNE,32,3.0,3.0,93,0.00,,,0.09,Wunderground v.1.15,2013-08-23 07:40:00,
2013-08-22 23:45:00,51.1,49.1,29.53,NE,37,2.0,3.0,93,0.00,,,0.09,Wunderground v.1.15,2013-08-23 07:45:00,
2013-08-22 23:55:00,50.7,49.0,29.53,NE,35,1.0,3.0,94,0.00,,,0.09,Wunderground v.1.15,2013-08-23 07:55:00,